(273537) = 2007 BJ40

Discovered at Mount Lemmon on 2007-01-24 by Mt. Lemmon Survey.

Orbit

Orbit type: Main Belt

Note: WebGL enabled browser required.

epoch2023-09-13.0
epoch JD2460200.5
perihelion date2022-03-20.10404
perihelion JD2459658.60404
argument of perihelion (°)252.15543
ascending node (°)313.93453
inclination (°)3.50628
eccentricity0.0969274
perihelion distance (AU)2.1272739
Tisserand w.r.t. Jupiter3.5
ΔV w.r.t. Earth (km/sec)9.1
semimajor axis (AU)2.3555955
mean anomaly (°)147.72999
mean daily motion (°/day)0.27261690
aphelion distance (AU)2.584
period (years)3.62
P-vector [x]-0.89682149
P-vector [y]-0.37920075
P-vector [z]-0.22785523
Q-vector [x]0.44019488
Q-vector [y]-0.81617503
Q-vector [z]-0.37428171
absolute magnitude17.34
phase slope0.15
uncertainty0
referenceMPO 778960
observations used355
oppositions15
arc length (days)8658
first opposition used2000
last opposition used2023
residual rms (arc-secs)0.70
perturbers coarse indicatorM-v
perturbers precise indicator003Ek
first observation date used2000-03-03.0
last observation date used2023-11-16.0
computer nameMPCLINUX
JD of orbit computation2456670.652315
perihelion JD uncertainty (days)1.0557E-04
argument of perihelion uncertainty (°)6.8030E-05
ascending node uncertainty (°)6.2537E-05
inclination uncertainty (°)5.0363E-06
eccentricity uncertainty 4.2448E-08
perihelion distance uncertainty (AU)1.0059E-07
Minimum Orbit Intersection Distances (in AU)
for orbit epoch: 2460200.5, reference: E2023-W14
Mercury1.68705
Venus1.41101
Earth1.12509
Mars0.51138
Jupiter2.38636
Saturn6.57765
Uranus16.2547
Neptune27.2654

Observations

364 total observations over interval: 2000 03 03.26430 – 2023 11 16.304113
These data are available for download (format description).

Date (UT) J2000 RA J2000 Dec Magn Location Ref
2000 03 03.26430 10 52 44.92 +03 47 05.6 17.8   704 – Lincoln Laboratory ETS, New Mexico MPS 213861
2000 03 03.27752 10 52 44.09 +03 47 08.5 18.1   704 – Lincoln Laboratory ETS, New Mexico MPS 213861
2000 03 03.29074 10 52 43.31 +03 47 12.0 18.1   704 – Lincoln Laboratory ETS, New Mexico MPS 213861
2000 03 03.30395 10 52 42.39 +03 47 15.8 18.1   704 – Lincoln Laboratory ETS, New Mexico MPS 213861
2000 03 03.31717 10 52 41.60 +03 47 18.4 18.2   704 – Lincoln Laboratory ETS, New Mexico MPS 213861
2002 12 31.22571 04 39 40.16 +26 33 39.1 20.3 r 705 – Apache Point MPS 468545
2002 12 31.22653 04 39 40.12 +26 33 39.0   705 – Apache Point MPS 468545
2002 12 31.22902 04 39 39.99 +26 33 38.4   705 – Apache Point MPS 468545
2004 05 15.48563 15 12 51.73 -24 40 55.8 18.6 R E12 – Siding Spring Survey MPS 201570
2004 05 15.49249 15 12 51.43 -24 40 53.4 18.9 R E12 – Siding Spring Survey MPS 201570
2004 05 15.49932 15 12 50.95 -24 40 53.7 19.5 R E12 – Siding Spring Survey MPS 201570
2004 05 15.50619 15 12 50.49 -24 40 51.8 20.4 R E12 – Siding Spring Survey MPS 201570
2005 09 29.17915 00 33 57.43 +08 46 26.0 21.5 V 691 – Steward Observatory, Kitt Peak-Spacewatch MPS 201570
2005 09 29.19994 00 33 56.18 +08 46 19.5 21.3 V 691 – Steward Observatory, Kitt Peak-Spacewatch MPS 201570
2005 09 29.21728 00 33 55.19 +08 46 13.6 20.9 V 691 – Steward Observatory, Kitt Peak-Spacewatch MPS 201570
2005 10 11.16093 00 22 34.78 +07 41 10.8 21.2 V 691 – Steward Observatory, Kitt Peak-Spacewatch MPS 201570
2005 10 11.18159 00 22 33.63 +07 41 03.5 20.8 V 691 – Steward Observatory, Kitt Peak-Spacewatch MPS 201570
2005 10 11.20238 00 22 32.47 +07 40 56.2 20.6 V 691 – Steward Observatory, Kitt Peak-Spacewatch MPS 201570
2005 10 24.09126 00 12 07.21 +06 32 13.5 21.4 V 691 – Steward Observatory, Kitt Peak-Spacewatch MPS 201570
2005 10 24.10667 00 12 06.54 +06 32 09.1 21.4 V 691 – Steward Observatory, Kitt Peak-Spacewatch MPS 201570
2005 10 24.12208 00 12 05.90 +06 32 04.6 21.4 V 691 – Steward Observatory, Kitt Peak-Spacewatch MPS 201570
2005 11 03.07907 00 06 25.96 +05 48 36.1 21.4 V 691 – Steward Observatory, Kitt Peak-Spacewatch MPS 201570
2005 11 03.09196 00 06 25.66 +05 48 33.1 21.1 V 691 – Steward Observatory, Kitt Peak-Spacewatch MPS 201570
2005 11 03.10499 00 06 25.27 +05 48 30.1 21.2 V 691 – Steward Observatory, Kitt Peak-Spacewatch MPS 201570
2005 11 03.20375 00 06 22.50 +05 48 07.6 21.2 V G96 – Mt. Lemmon Survey MPS 201570
2005 11 03.21043 00 06 22.32 +05 48 06.7 21.5 V G96 – Mt. Lemmon Survey MPS 201570
2005 11 03.21707 00 06 22.10 +05 48 04.8 21.0 V G96 – Mt. Lemmon Survey MPS 201570
2005 11 03.22374 00 06 21.92 +05 48 03.6 21.2 V G96 – Mt. Lemmon Survey MPS 201570
2006 11 21.41046 09 00 34.77 +18 58 57.9 21.8 V G96 – Mt. Lemmon Survey MPS 201570
2006 11 21.41935 09 00 35.10 +18 58 56.3 21.8 V G96 – Mt. Lemmon Survey MPS 201570
2006 11 21.42827 09 00 35.49 +18 58 54.6 21.8 V G96 – Mt. Lemmon Survey MPS 201570
2006 11 21.43721 09 00 35.85 +18 58 53.6 21.2 V G96 – Mt. Lemmon Survey MPS 201570
2007 01 24.33571 08 42 36.46 +19 04 35.7 19.8 V G96 – Mt. Lemmon Survey MPS 198239
2007 01 24.34296 08 42 36.00 +19 04 36.7 19.9 V G96 – Mt. Lemmon Survey MPS 198239
2007 01 24.35008 08 42 35.46 +19 04 38.0 20.1 V G96 – Mt. Lemmon Survey MPS 198239
2007 01 24.35728 08 42 34.99 +19 04 38.6 20.3 V G96 – Mt. Lemmon Survey MPS 198239
2007 01 27.24277 08 39 23.70 +19 11 22.0 20.1 V 691 – Steward Observatory, Kitt Peak-Spacewatch MPS 198239
2007 01 27.26076 08 39 22.48 +19 11 24.7 20.0 V 691 – Steward Observatory, Kitt Peak-Spacewatch MPS 198239
2007 01 27.27852 08 39 21.23 +19 11 27.2 20.1 V 691 – Steward Observatory, Kitt Peak-Spacewatch MPS 198239
2007 02 13.20107 08 21 20.77 +19 42 35.7 20.2 V G96 – Mt. Lemmon Survey MPS 200447
2007 02 13.21756 08 21 19.83 +19 42 37.4 19.4 V G96 – Mt. Lemmon Survey MPS 200447
2007 02 13.22561 08 21 19.33 +19 42 37.8 19.6 V G96 – Mt. Lemmon Survey MPS 200447
2007 02 17.12057 08 17 49.62 +19 46 45.6   691 – Steward Observatory, Kitt Peak-Spacewatch MPS 200447
2007 02 17.14312 08 17 48.42 +19 46 47.0   691 – Steward Observatory, Kitt Peak-Spacewatch MPS 200447
2007 02 17.16567 08 17 47.23 +19 46 48.4   691 – Steward Observatory, Kitt Peak-Spacewatch MPS 200447
2007 02 19.12406 08 16 10.80 +19 48 21.1   691 – Steward Observatory, Kitt Peak-Spacewatch MPS 201570
2007 02 19.14664 08 16 09.70 +19 48 22.0   691 – Steward Observatory, Kitt Peak-Spacewatch MPS 201570
2007 02 19.16980 08 16 08.54 +19 48 23.3   691 – Steward Observatory, Kitt Peak-Spacewatch MPS 201570
2007 02 21.11781 08 14 39.35 +19 49 33.7 20.5 V 691 – Steward Observatory, Kitt Peak-Spacewatch MPS 200447
2007 02 21.14387 08 14 38.13 +19 49 34.6 20.8 V 691 – Steward Observatory, Kitt Peak-Spacewatch MPS 200447
2007 02 21.16965 08 14 36.91 +19 49 35.7 20.3 V 691 – Steward Observatory, Kitt Peak-Spacewatch MPS 200447
2007 02 21.27010 08 14 32.31 +19 49 38.2 20.6 V G96 – Mt. Lemmon Survey MPS 200447
2007 02 21.27736 08 14 31.95 +19 49 38.5 20.4 V G96 – Mt. Lemmon Survey MPS 200447
2007 02 21.28500 08 14 31.63 +19 49 38.5 20.6 V G96 – Mt. Lemmon Survey MPS 200447
2007 02 21.29235 08 14 31.27 +19 49 39.1 20.5 V G96 – Mt. Lemmon Survey MPS 200447
2007 02 21.31254 08 14 30.33 +19 49 39.4 20.5 V G96 – Mt. Lemmon Survey MPS 200447
2007 02 21.31484 08 14 30.26 +19 49 39.5 20.3 V G96 – Mt. Lemmon Survey MPS 200447
2007 02 21.31712 08 14 30.15 +19 49 39.2 20.4 V G96 – Mt. Lemmon Survey MPS 200447
2007 02 21.31933 08 14 30.04 +19 49 39.6 20.5 V G96 – Mt. Lemmon Survey MPS 200447
2008 06 24.41933 20 15 28.80 -22 22 50.6   691 – Steward Observatory, Kitt Peak-Spacewatch MPS 251691
2008 06 24.43442 20 15 28.09 -22 22 51.7   691 – Steward Observatory, Kitt Peak-Spacewatch MPS 251691
2008 06 24.44951 20 15 27.38 -22 22 52.6   691 – Steward Observatory, Kitt Peak-Spacewatch MPS 251691
2011 03 25.32551 12 37 22.90 -09 49 37.9 20.1 V 703 – Catalina Sky Survey MPS 375577
2011 03 25.33250 12 37 22.47 -09 49 36.2 19.5 V 703 – Catalina Sky Survey MPS 375577
2011 03 25.33943 12 37 22.04 -09 49 33.1 19.5 V 703 – Catalina Sky Survey MPS 375577
2011 03 25.34638 12 37 21.64 -09 49 32.7 21.0 V 703 – Catalina Sky Survey MPS 375577
2011 03 30.24839 12 32 42.93 -09 29 09.0 19.5 V G96 – Mt. Lemmon Survey MPS 375577
2011 03 30.25366 12 32 42.64 -09 29 07.6 19.4 V G96 – Mt. Lemmon Survey MPS 375577
2011 03 30.25892 12 32 42.32 -09 29 06.4 19.4 V G96 – Mt. Lemmon Survey MPS 375577
2011 03 30.26549 12 32 41.89 -09 29 04.7 19.6 V G96 – Mt. Lemmon Survey MPS 375577
2011 03 31.18719 12 31 49.08 -09 24 56.3 19.5 V G96 – Mt. Lemmon Survey MPS 375577
2011 03 31.18856 12 31 48.97 -09 24 55.8 19.6 V G96 – Mt. Lemmon Survey MPS 375577
2011 03 31.18995 12 31 48.90 -09 24 55.4 19.4 V G96 – Mt. Lemmon Survey MPS 375577
2011 03 31.19133 12 31 48.82 -09 24 54.9 19.6 V G96 – Mt. Lemmon Survey MPS 375577
2011 04 01.30788 12 30 44.35 -09 19 47.5 18.8   704 – Lincoln Laboratory ETS, New Mexico MPS 377188
2011 04 01.32118 12 30 43.55 -09 19 44.6 19.7   704 – Lincoln Laboratory ETS, New Mexico MPS 377188
2011 04 01.33422 12 30 42.75 -09 19 40.4 19.1   704 – Lincoln Laboratory ETS, New Mexico MPS 377188
2011 04 01.34747 12 30 42.07 -09 19 36.8 19.8   704 – Lincoln Laboratory ETS, New Mexico MPS 377188
2011 04 02.31230 12 29 46.64 -09 15 06.1 19.5 V G96 – Mt. Lemmon Survey MPS 377188
2011 04 02.31968 12 29 46.21 -09 15 04.3 19.4 V G96 – Mt. Lemmon Survey MPS 377188
2011 04 02.32704 12 29 45.78 -09 15 02.0 19.6 V G96 – Mt. Lemmon Survey MPS 377188
2011 04 02.33440 12 29 45.34 -09 15 00.0 19.5 V G96 – Mt. Lemmon Survey MPS 377188
2012 08 09.51651 23 23 32.954 -01 30 14.96 20.8 i F51 – Pan-STARRS 1, Haleakala MPS 429302
2012 08 09.52892 23 23 32.472 -01 30 16.09 20.7 i F51 – Pan-STARRS 1, Haleakala MPS 429302
2012 08 25.21923 23 11 37.97 -02 16 30.9 20.5 V 691 – Steward Observatory, Kitt Peak-Spacewatch MPS 430969
2012 08 25.23696 23 11 36.97 -02 16 35.7 20.8 V 691 – Steward Observatory, Kitt Peak-Spacewatch MPS 430969
2012 08 25.25219 23 11 36.15 -02 16 39.3 20.7 V 691 – Steward Observatory, Kitt Peak-Spacewatch MPS 430969
2012 09 17.20419 22 50 02.32 -04 00 56.6 20.5 V G96 – Mt. Lemmon Survey MPS 433206
